Other Public Products
Issued by NWS Grand Forks, ND

Home | Current Version | Previous Version | Text Only | Print | Product List | Glossary Off
Versions: 1 2 3 4 5 6 7 8 9 10 11 12 13 14 15 16 17 18 19 20 21 22 23 24 25 26 27 28 29 30 31 32 33 34 35 36 37 38 39 40 41 42 43 44 45 46 47 48 49 50

000
FPUS83 KFGF 011110
OPUFGF
PRAIRIE TO PINES WEATHER ROUNDUP
NATIONAL WEATHER SERVICE EASTERN NORTH DAKOTA/GRAND FORKS ND
500 AM CST SUN FEB 01 2015

 **SATELLITE DATA USED TO AUGMENT SKY COVER AT AUTOMATED STATIONS**
 *****  WEATHER ACROSS EASTERN NORTH DAKOTA  *****

CITY           SKY/WX    TMP DP  RH WIND       PRES   REMARKS
GRAND FORKS    MOCLDY   -11 -19  68 N15       30.57S WCI -33
GRAND FORKS AF PTCLDY   -12 -21  65 N13       30.57S WCI -33
GRAND CITY NWS   N/A    -13 N/A N/A N10         N/A  WCI -32
BUXTON         NOT AVBL
DEVILS LAKE    MOCLDY   -11 -24  53 N10       30.49F WCI -30
FARGO          CLOUDY    -5 -13  68 N20       30.47S WCI -28
WAHPETON ARPT  MOSUNNY    1  -9  60 N22       30.39R WCI -21
$$

 *****  WEATHER ACROSS CENTRAL AND WESTERN NORTH DAKOTA  *****

CITY           SKY/WX    TMP DP  RH WIND       PRES   REMARKS
JAMESTOWN      MOCLDY    -7 -15  68 N16       30.45R WCI -29
BISMARCK       CLOUDY    -5 -13  68 N13       30.48R WCI -24
MINOT          CLOUDY    -9 -18  64 NW8       30.50S WCI -25
MINOT AFB      PTCLDY    -8 -16  67 N6        30.51S WCI -21
GARRISON         N/A     -8 -15  71 N7        30.47S WCI -23
WILLISTON      PTCLDY   -14 -20  74 W3        30.48F
DICKINSON      FLURRIES  -4 -10  75 N7        30.37R WCI -18
HETTINGER      LGT SNOW  -3  -8  79 N9        30.36S WCI -19
$$

 *****  OTHER OBSERVATIONS NORTHEAST NORTH DAKOTA  *****

CITY           SKY/WX    TMP DP  RH WIND       PRES   REMARKS
WALHALLA         N/A    -13 -20  70 N6        30.60F WCI -27
LANGDON        NOT AVBL
CAVALIER       FAIR     -11 -18  70 N7        30.60F WCI -26
GRAFTON        NOT AVBL
CANDO          PTSUNNY  -13 -20  70 NE6       30.53S WCI -27
FORT TOTTEN      N/A    -13 -24  59 NE6       29.95S WCI -27
ROLLA          CLOUDY   -13 -22  64 N9        30.48S WCI -31
RUGBY          FAIR     -13 -18  77 E3        30.52S
 ***** THE ABOVE OBSERVATIONS ARE NON NWS ARE NOT QUALITY
        CONTROLLED AND MAY MIS-REPORT RAIN FOR SNOW...
$$

 *****  OTHER OBSERVATIONS SOUTHEAST NORTH DAKOTA *****

CITY           SKY/WX    TMP DP  RH WIND       PRES   REMARKS
COOPERSTOWN    NOT AVBL
VALLEY CITY    CLOUDY    -8 -13  77 N17G23    30.44S WCI -31
OAKES            N/A     -2  -9  71 N21       30.40S WCI -25
GWINNER        CLOUDY     0 -11  60 N24       30.41R WCI -24
SHEYENNE NWR     N/A     -6 -16  62 N14       29.95  WCI -26
BUFFALO        NOT AVBL
WYNDMERE         N/A     -4 -11  71 VRB16       N/A  WCI -25
 ***** THE ABOVE OBSERVATIONS ARE NON NWS ARE NOT QUALITY
       CONTROLLED AND MAY MIS-REPORT RAIN FOR SNOW...
$$

  *****  WEATHER ACROSS NORTHERN MINNESOTA  *****

CITY           SKY/WX    TMP DP  RH WIND       PRES   REMARKS
FLAG ISLAND    PTCLDY   -20 -26  76 NW9       30.51S WCI -40
WARROAD        PTCLDY   -20 -26  76 NW6       30.53R WCI -36
ROSEAU         PTCLDY   -17 -24  70 N6        30.54S WCI -31
HALLOCK        PTCLDY   -15 -20  76 N8        30.59S WCI -32
THF RVR FALLS  PTCLDY   -11 -15  84 N8        30.50R WCI -28
HALSTAD          N/A     -7 -15  69 N18         N/A  WCI -31
FOSSTON        PTCLDY   -11 -17  77 N9        30.45S WCI -29
BAUDETTE       MOCLDY   -16 -21  78 N7        30.49S WCI -32
WASKISH        MOCLDY   -15 -20  76 CALM      30.47S
CROOKSTON      PTCLDY    -9 -17  70 N14       30.55R WCI -31
$$
  *****  WEATHER ACROSS CENTRAL AND WEST MINNESOTA  *****

CITY           SKY/WX    TMP DP  RH WIND       PRES   REMARKS
BEMIDJI        PTCLDY   -12 -17  77 N7        30.41S WCI -27
PARK RAPIDS    PTCLDY    -4 -14  62 NE13      30.34R WCI -23
WADENA         PTCLDY    -2  -9  71 NE15      30.31S WCI -22
DETROIT LAKES  PTCLDY    -2  -9  71 N8        30.38R WCI -17
MOORHEAD       PTCLDY    -2  -9  71 N22G28    30.45S WCI -26
FERGUS FALLS   PTCLDY     1  -9  60 NE10G16   30.38S WCI -14
ELBOW LAKE     PTSUNNY    2  -5  70 N15G21    30.30S WCI -16
MORRIS MN      FAIR       7  -2  66 N18       30.28R WCI -12
STAPLES        MOCLDY     0  -9  65 N9G18     30.31S WCI -16
WHEATON        CLOUDY     1  -8  66 N20G25    30.36S WCI -20
$$
  *****  WEATHER ELSEWHERE ACROSS MINNESOTA  *****

CITY           SKY/WX    TMP DP  RH WIND       PRES   REMARKS
DULUTH         FLURRIES   0  -7  72 N9        30.29F WCI -15
INTRNTL FALLS  PTCLDY   -25 -30  78 N3        30.47S
ELY            MOCLDY   -15 -18  84 CALM      30.39F
CLOQUET        CLOUDY     0  -9  65 N8        30.30S WCI -15
BRAINERD       MOCLDY     1  -9  62 N13       30.31F WCI -17
HIBBING        CLOUDY    -5 -15  62 N9        30.37S WCI -22
ALEXANDRIA     MOCLDY     4  -5  66 NE13      30.26S WCI -13
SAINT CLOUD    CLOUDY     9   0  67 NE9G20    30.24S WCI  -4
MINNEAPOLIS    LGT SNOW  15   8  73 NE18G24   30.18S WCI  -2
$$

  *****  WEATHER ACROSS SOUTH DAKOTA  *****

CITY           SKY/WX    TMP DP  RH WIND       PRES   REMARKS
SIOUX FALLS    LGT SNOW  15  11  83 N20G33    30.07R VSB 3/4 WCI  -2
BROOKINGS      NOT AVBL
WATERTOWN      LGT SNOW   0  -5  79 N21G32    30.20R WCI -22
HURON          LGT SNOW   1  -3  83 N22G28    30.27R FOG     WCI -21
SISSETON         N/A      0  -7  72 N22       30.35R WCI -23
ABERDEEN       LGT SNOW  -1  -8  72 N24G31    30.36R WCI -25
MITCHELL       LGT SNOW   6   3  87 N22       30.22R VSB 1   WCI -15
PIERRE         LGT SNOW   2  -3  80 N18       30.32R WCI -19
MOBRIDGE       LGT SNOW  -2  -9  72 N17       30.36R WCI -23
RAPID CITY     CLOUDY     5   1  83 N16       30.24S WCI -14
$$

  *****  SOME WEATHER IN NEARBY STATES *****

CITY           SKY/WX    TMP DP  RH WIND       PRES   REMARKS
GLASGOW MT     CLEAR     -2  -6  83 S5        30.45S WCI -12
GREAT FALLS MT FOG        1  -1  91 CALM      30.28F VSB 1/4
CHEYENNE WY    CLOUDY    16  12  84 N17       30.01R WCI   0
SCOTTSBLUFF NE CLOUDY    21  16  81 NW13      30.13R WCI   9
OMAHA NE       LGT SNOW  33  32  96 N10       29.80F FOG     WCI  25
DES MOINES IA  LGT SNOW  33  31  92 E7        29.80S FOG
DAVENPORT IA   SNOW      32  30  92 E14       29.90F VSB 1/2 WCI  22
CHICAGO IL     SNOW      30  29  96 E10       30.02F VSB 1/2 WCI  21
EAU CLAIRE WI  LGT SNOW  14   8  77 NE14      30.19S WCI  -1
LA CROSSE WI   LGT SNOW  20  16  84 E7        30.12F FOG     WCI  11
$$

  *****  SOME NATIONAL WEATHER *****

CITY           SKY/WX    TMP DP  RH WIND       PRES   REMARKS
LA GUARDIA NY  MOCLDY    25  10  53 W12       30.22R WCI  14
RALEIGH NC     CLOUDY    38  17  42 CALM      30.25F
ATLANTA GA     MOCLDY    42  25  50 SE5       30.20S
NEW ORLEANS LA CLOUDY    62  54  74 SE5       30.02S
OKLAHOMA CITY  CLOUDY    47  44  90 W12       29.82R
ALBUQUERQUE NM PTCLDY    37  31  78 N8        30.01R
SALT LAKE CITY CLEAR     28  24  85 SE6       30.19S WCI  22
LOS ANGELES CA CLEAR     54  52  93 CALM      30.01S
BOISE ID       MOCLDY    35  24  64 SE13      30.18F
SEATTLE WA     CLOUDY    41  40  96 S5        30.08S FOG
$$

*** WEATHER ACROSS MANITOBA...SASKATCHEWAN AND ONTARIO ***
                ***ONTARIO***

CITY           SKY/WX    TMP DP  RH WIND       PRES   REMARKS
GERALDTON      CLEAR    -35 -40  74 CALM      30.40S
THUNDER BAY    PTCLDY   -18 -26  69 SW3       30.52R
SIOUX LOOKOUT  CLEAR    -33 -38  75 VRB2      30.45S
TORONTO        FLURRIES  19  14  79 N17       30.22R WCI   4
BIG TROUT LK   CLEAR    -26 -33  68 W10       30.36S WCI -48
PICKLE LAKE    CLEAR    -24 -31  69 W9        30.40  WCI -45
DRYDEN         CLEAR    -22 -27  76 NW5       30.45S WCI -36
KENORA         CLEAR    -22 -27  76 N9        30.47S WCI -42
$$
                *** MANITOBA***

CITY           SKY/WX    TMP DP  RH WIND       PRES   REMARKS
BRANDON        CLEAR    -20 -27  69 W6        30.55F WCI -36
DAUPHIN        PTCLDY   -18 -26  69 SW9       30.57F WCI -38
ISLAND LAKE    CLEAR    -26 -31  75 W7        30.44F WCI -44
PILOT MOUND      N/A    -18 -26  69 NW3         N/A
THE PAS        CLEAR    -24 -29  76 CALM      30.52F
THOMPSON       CLEAR    -27 -33  75 W6        30.40F WCI -44
WINNIPEG       CLEAR    -18 -26  69 NW5       30.63S WCI -31
LYNN LAKE      PTCLDY   -24 -31  69 W8        30.33F WCI -43
CHURCHILL      CRYSTALS -22 -29  69 NW12      30.29F WCI -45
GILLAM         CLEAR    -22 -31  63 W13       30.36S WCI -46
$$
                ***SASKATCHEWAN***

CITY           SKY/WX    TMP DP  RH WIND       PRES   REMARKS
ESTEVAN        PTCLDY   -11 -17  77 S2        30.48F
KINDERSLEY     CLEAR    -13 -17  84 S7        30.38F WCI -29
LLOYDMINSTER   PTCLDY    -6  -9  84 S12       30.31F WCI -24
PRINCE ALBERT  CLEAR    -26 -33  68 S2        30.46F
REGINA         PTCLDY   -13 -17  84 SW6       30.49F WCI -27


USA.gov is the U.S. government's official web portal to all federal, state and local government web resources and services.